Location: Caltech
(34.1382°N, 118.1253°W)
Time: 09:55:24
(UTC-07:00)

Cosmos 1606 - Visible Passes

Search period start: 29 August 2015 00:00
Search period end: 08 September 2015 00:00
Orbit: 512 x 538 km, 82.5° (Epoch: 29 August)

Date Brightness Start Highest point End Pass type
(mag) Time Alt. Az. Time Alt. Az. Time Alt. Az.
30 Aug 2.7 05:46:09 10° S 05:49:55 89° ESE 05:53:46 10° N visible
31 Aug 2.8 05:34:02 10° S 05:37:49 78° E 05:41:38 10° N visible
01 Sep 3.0 05:21:57 10° S 05:25:42 67° E 05:29:30 10° NNE visible
02 Sep 3.3 05:09:51 10° S 05:13:34 57° E 05:17:20 10° NNE visible
03 Sep 3.6 04:57:47 10° SSE 05:01:27 49° E 05:05:11 10° NNE visible
04 Sep 3.8 04:46:01 12° SSE 04:49:19 43° E 04:52:59 10° NNE visible
05 Sep 4.1 04:34:58 19° SSE 04:37:12 37° E 04:40:46 10° NNE visible
06 Sep 4.3 04:23:48 25° SE 04:25:04 32° E 04:28:33 10° NNE visible
06 Sep 4.7 05:59:34 10° W 06:01:11 12° WNW 06:02:37 10° NW visible
07 Sep 4.5 04:12:33 28° ESE 04:12:56 28° E 04:16:17 10° NNE visible
07 Sep 4.5 05:47:48 12° W 05:48:59 14° WNW 05:50:53 10° NW visible
